Regional Weather Roundup
Issued by NWS Boston, MA

Current Version | Previous Version | Text Only | Print | Product List | Glossary On
Versions: 1 2 3 4 5 6 7 8 9 10 11 12 13 14 15 16 17 18 19 20 21 22 23 24 25 26 27 28 29 30 31 32 33 34 35 36 37 38 39 40 41 42 43 44 45 46 47 48 49 50
000
ASUS41 KBOX 282210
RWRBOX

REGIONAL WEATHER ROUNDUP
NATIONAL WEATHER SERVICE TAUNTON MA
500 PM EST WED JAN 28 2015

NOTE:  "FAIR" INDICATES FEW OR NO CLOUDS BELOW 12,000 FEET WITH NO
SIGNIFICANT WEATHER AND/OR OBSTRUCTIONS TO VISIBILITY.  THE FOLLOWING
OBSERVATION LOCATIONS DO NOT REPORT PRESENT WEATHER...PROVINCETOWN...
SMITHFIELD...BLOCK ISLAND...KEENE...AND OXFORD.

MAZALL-282300-
EASTERN MASSACHUSETTS

CITY           SKY/WX    TMP DP  RH WIND       PRES   REMARKS
BOSTON         PTCLDY    23   9  55 NW13      30.06R WCI  11
BEVERLY        CLEAR     23   7  50 NW15      30.04R WCI  10
LAWRENCE       CLEAR     22   8  55 NW8G20    30.06R WCI  12
BEDFORD        CLEAR     21   7  54 NW10      30.05R WCI  10
BLUE HILL        N/A     20   8  60 MISG      30.00R
NORWOOD        CLEAR     24   7  48 NW8       30.06R WCI  15
MARSHFIELD     CLEAR     27  12  54 NW5       30.06R HAZE    WCI  21
PLYMOUTH       CLEAR     21   7  54 CALM      30.04R
TAUNTON        CLEAR     25   8  48 VRB7G16   30.04R WCI  17
NEW BEDFORD    CLEAR     24   7  48 CALM      30.04R
$$

MAZALL-282300-
CAPE COD AND THE ISLANDS

CITY           SKY/WX    TMP DP  RH WIND       PRES   REMARKS
FALMOUTH       MOCLDY    21   7  53 CALM      30.05R
HYANNIS        CLOUDY    23  12  62 W8        30.03R WCI  14
CHATHAM        FLURRIES  23  16  74 VRB3      30.03R
PROVINCETOWN   CLOUDY    27  12  54 NW15G21   30.03R WCI  15
NANTUCKET      CLOUDY    24  15  68 N13       30.03R WCI  12
MARTHAS VNYRD  CLEAR     21   7  54 N7        30.05R WCI  12
$$

MAZALL-282300-
CENTRAL AND WESTERN MASSACHUSETTS

CITY           SKY/WX    TMP DP  RH WIND       PRES   REMARKS
WORCESTER      CLEAR     20   7  57 NW12      30.00R WCI   8
FITCHBURG      CLEAR     25   6  44 N14       30.05R WCI  13
ORANGE         CLEAR     22   5  48 N9        30.07R WCI  12
SPRINGFIELD    FAIR      23   8  52 NW6       30.09R WCI  16
WESTFIELD      CLEAR     25   4  40 NW15      30.10R WCI  13
NORTH ADAMS    CLEAR     18   3  52 W12       30.13R WCI   5
PITTSFIELD     CLEAR     17   4  56 W5        30.06R WCI  10
$$

RIZALL-282300-
RHODE ISLAND

CITY           SKY/WX    TMP DP  RH WIND       PRES   REMARKS
PROVIDENCE     PTCLDY    24   8  50 N5        30.05R WCI  18
NEWPORT        CLEAR     23   8  52 NW10      30.04R WCI  12
BLOCK ISLAND   CLEAR     25   9  50 N9G16     30.04R WCI  15
SMITHFIELD     CLEAR     21   7  53 NW9       30.02R WCI  11
WESTERLY       CLEAR     25   8  48 CALM      30.07R
$$

CTZALL-282300-
CONNECTICUT

CITY           SKY/WX    TMP DP  RH WIND       PRES   REMARKS
BRADLEY INTL   PTCLDY    27   4  37 N14G21    30.09R WCI  16
HARTFORD       CLEAR     27   8  44 NW10G23   30.10R WCI  17
BRIDGEPORT     CLEAR     28   8  43 N18G24    30.10R WCI  15
DANBURY        CLEAR     26   3  37 N8        30.12R WCI  18
GROTON         CLEAR     24  10  55 N7        30.07R WCI  16
NEW HAVEN      CLEAR     27   8  44 NW14G23   30.09R WCI  16
CHESTER        FAIR      27  12  54 NW10      30.06R WCI  17
MERIDEN        CLEAR     26   7  44 N13G28    30.10R WCI  15
WILLIMANTIC    CLEAR     25   8  48 NW8       30.07R WCI  16
OXFORD         CLEAR     23   3  42 N14G21    30.08R WCI  11
$$

MEZ002-015-021-024-NHZ003-005-008-011-012-014-VTZ005-008-282300-
NORTHERN NEW ENGLAND

CITY           SKY/WX    TMP DP  RH WIND       PRES   REMARKS
PORTLAND ME    PTCLDY    25  10  53 NW10      30.02R WCI  15
BANGOR ME      PTCLDY    16   7  67 NW6       29.99R WCI   7
CONCORD NH     CLEAR     21   6  52 W5        30.06R WCI  15
MANCHESTER NH  PTCLDY    22   7  52 NW15      30.04R WCI   9
NASHUA NH      PTCLDY    23   8  52 NW10      30.06R WCI  12
PORTSMOUTH NH  PTCLDY    22   8  54 W12       30.02R WCI  10
JAFFREY NH     CLEAR     20   2  45 VRB6      30.03R WCI  12
KEENE NH       CLEAR     23   3  42 CALM      30.09R
BURLINGTON VT  CLEAR     15  -9  33 NE6       30.21R WCI   6
MT. WASHINGTON MOCLDY     1  -9  60 N46G55      N/A  WCI -28
$$

NYZ052-076-282300-
EASTERN NEW YORK

CITY           SKY/WX    TMP DP  RH WIND       PRES   REMARKS
ALBANY         CLEAR     21  -1  38 N8        30.18R WCI  11
NEW YORK CITY  CLEAR     32  11  41 N9        30.13R WCI  24
$$

ANZALL-282300-
MARINE OBSERVATIONS

STATION/POSITION TIME  TEMP    WIND        PRES    VSBY  WAVE
                       AIR SEA DIR/SP/G                  HT/PER
                 (UTC) (F)     (DEG/KT/KT) (MB)    (MI)  (FT/S)
BOSTON BUOY      2150   26 40  320/ 16/ 21 1016.9R         7/ 8
BUZZARDS BAY     2100          340/  9/ 11 1017.4R
NANTUCKET SOUND  NOT AVBL
MASS BAY-STELLWA 2104   24 41  320/ 17/ 19   N/A    1 7/8  8/11
ISLE OF SHOALS   2200   24     300/ 19/ 20 1016.0R
S OF BLOCK IS    2108      43                N/A           4/11
$$

......................KEY.........................
  SKY/WX - SKY CONDITION/PRESENT WEATHER
  TMP    - TEMPERATURE IN FAHRENHEIT
  DWPT   - DEWPOINT IN FAHRENHEIT
  RH     - RELATIVE HUMIDITY IN PERCENT
  WIND   - DIRECTION AND SPEED IN MPH
  PRES   - MEAN SEA LEVEL PRESSURE IN INCHES OF HG
  WCI    - WIND CHILL INDEX
  VSB    - VISIBILITY IN MILES
  HX     - HEAT INDEX
  TC     - TEMPERATURE IN CELSIUS
  VRB    - VARIABLE WIND DIRECTION
  N/A    - NOT AVAILABLE



USA.gov is the U.S. government's official web portal to all federal, state and local government web resources and services.